GLOBALSTAR M066 [+]

Last updated on July 6, 2021, 3:36 p.m. UTC

1 32265U 07048C   21186.93323994 -.00000086  00000-0  10034-3 0  9993
2 32265  51.9690  64.3770 0001850  18.5986  54.9114 12.62261112633794
UTC
Height (km)
Latitude
Longitude
Inclination
Orbital Period
UTC large
Height (km)
Speed (km/s)
/
Latitude / Longitude
Inclination (degrees)
Orbital Period (minutes)
Azimuth
Elevation
Range (km)
Doppler Factor
iOS Compass Heading
iOS Angle